SCP
-0 0 0 0 0 0 0 0 0 0 0 0 0 0 0 0 0 0 0 0 0 0 0 0 0 0 0 0 0 0 -0 0 0 0 0 0 0 0 0 0 0 0 0 0 0 0 0
0 0 0 0 0 0 0 0 0 0 0 0 0 0 0 0 0 0 0 0 0 0 0 0 0 0 0 0 0 0 0 0 0 0 0 0 0 0 0 0 0 0 0 0 0 0 0
0 0 0 0 0 0 0 0 0 0 0 0 0 0 0 0 0 0 0 0 0 0 0 0 0 0 0 0 0 0 0 0 0 0 0 0 0 0 0 0 0 0 0 0 0 0 0
0 0 0 0 0 -0 -0 -0 -0 0 0 0 0 0 0 0 0 0 0 0 0 0 0 0 0 -0 -0 -0 0 0 0 0 0 0 0 0 0 0 0 0 0 0 0 0 0 0 -0
-0 -0 -0 -0 -0 -0 -0 -0 -0 -0 -0 -0 -0 -0 -0 -0 0 0 0 0 -0 -0 0 -0 0 -0 0 -0 -0 0 0 0 0 0 0 0 0 0 0 0 0 0 0 0 0 0 0
-0 -0 -0 -0 -0 -0 -0 -0 -0 -0 -0 -0 -0 -0 -0 -0 -0 -0 -0 0 -0 -0 -0 -0 -0 0 -0 0 0 0 0 0 0 0 0 0 0 0 0 0 0 0 0 0 0 0 0
-0 -0 -0 -0 -0 -0 -0 -0 -0 -0 -0 -0 -0 -0 0 0 0 0 0 -0 0 -0 -0 0 0 0 0 0 0 0 0 0 0 0 0 0 0 0 0 0 0 0 0 0 0 0 0
-0 -0 -0 -0 -0 -0 -0 -0 -0 -0 -0 -0 -0 -0 0 0 0 -0 -0 -0 0 0 0 0 0 0 -0 -0 0 0 0 0 0 0 0 0 0 0 0 0 0 0 0 0 0 0 0
-0 -0 -0 -0 -0 -0 -0 -0 -0 0 0 -0 -0 -0 0 0 0 -0 -0 0 0 0 0 -0 -0 0 0 -0 0 0 0 0 0 0 0 0 0 0 0 0 0 0 0 0 0 0 0
-0 -0 -0 -0 -0 0 -0 -0 -0 0 -0 0 0 0 0 0 0 0 0 0 -0 0 -0 -0 -0 -0 -0 0 0 0 -0 0 0 0 0 0 0 0 0 0 0 0 0 0 0 0 0
-0 -0 -0 0 0 0 0 0 0 0 0 0 0 0 0 0 0 0 0 0 0 -0 -0 0 0 0 -0 -0 -0 -0 -0 0 0 0 0 0 0 0 0 0 0 0 0 0 0 0 0
-0 -0 -0 0 0 0 0 0 0 0 0 0 0 -0 -0 0 0 0 -0 -0 0 0 0 -0 -0 -0 0 0 0 0 0 0 0 -0 0 0 0 0 0 0 0 0 0 0 0 0 0
-0 -0 0 0 0 0 0 0 0 0 0 0 0 -0 -0 0 0 0 0 0 -0 -0 -0 0 -0 -0 0 0 -0 -0 0 0 -0 0 0 0 0 0 0 0 0 0 0 0 0 0 0
-0 -0 0 0 0 0 0 0 0 0 0 0 0 -0 0 0 0 0 0 0 -0 -0 -0 -0 0 -0 0 -0 -0 0 -0 0 -0 0 0 0 0 0 0 0 0 0 0 0 0 0 0
-0 -0 -0 0 0 0 0 0 0 0 0 0 0 0 0 0 0 0 0 0 0 0 -0 -0 -0 -0 -0 -0 0 0 0 0 0 0 0 0 0 0 0 0 0 0 0 0 0 0 0
-0 -0 -0 -0 0 -0 0 0 0 0 0 0 0 0 0 0 0 0 0 0 -0 0 -0 0 -0 -0 -0 -0 0 0 0 0 0 0 -0 -0 0 0 0 0 0 0 0 0 0 0 0
0 -0 -0 -0 -0 -0 -0 0 0 0 0 0 0 0 0 0 0 0 0 0 0 -0 -0 0 0 -0 -0 -0 -0 -0 -0 0 0 0 0 -0 0 0 0 0 0 0 0 0 0 0 0
0 0 0 -0 -0 -0 0 0 0 0 0 0 0 0 0 0 0 0 0 0 -0 -0 0 -0 -0 -0 -0 -0 0 0 0 0 0 -0 -0 0 0 0 0 0 0 0 0 0 0 0 0
0 0 0 0 0 0 0 0 0 0 0 0 0 0 0 0 0 0 -0 -0 -0 0 0 -0 0 -0 0 -0 -0 0 -0 0 0 0 0 0 0 0 0 0 0 0 0 0 0 0 0
0 0 0 0 0 0 0 0 0 0 0 0 0 0 0 0 0 0 -0 0 0 -0 -0 0 -0 0 0 -0 -0 -0 -0 -0 0 0 0 0 0 0 0 0 0 0 0 0 0 0 0
0 0 0 0 0 0 0 0 0 0 -0 0 0 0 0 0 0 0 0 -0 -0 -0 -0 -0 -0 -0 -0 -0 -0 -0 -0 0 0 0 0 -0 -0 0 0 0 0 0 0 0 0 0 0
0 0 0 0 0 0 0 0 0 -0 0 0 0 0 0 0 0 0 0 0 -0 0 0 0 -0 -0 -0 -0 -0 -0 -0 -0 -0 -0 -0 -0 -0 0 -0 -0 0 0 0 0 0 0 0
0 0 0 0 0 0 0 0 0 0 0 0 0 0 0 0 0 0 0 0 0 0 0 0 -0 -0 -0 -0 0 -0 -0 -0 -0 -0 0 0 0 0 -0 -0 -0 0 0 0 0 0 0
0 0 0 0 0 0 0 0 0 0 0 0 0 0 0 0 0 0 0 0 0 -0 -0 -0 -0 0 -0 0 -0 -0 -0 -0 -0 -0 -0 -0 0 0 -0 -0 0 0 0 0 0 0 0
0 0 0 0 0 0 0 0 0 0 0 0 0 0 0 0 0 0 0 0 0 0 0 -0 0 0 -0 -0 -0 0 0 0 -0 -0 -0 -0 0 0 0 -0 -0 0 1 0 0 0 0
0 0 0 0 0 0 0 0 0 0 0 0 0 0 0 0 0 0 0 0 0 0 0 -0 -0 -0 -0 -0 0 -0 0 -0 0 -0 0 -0 0 0 0 -0 0 0 0 0 0 0 0
0 0 0 0 0 0 0 0 0 0 0 0 0 0 0 0 0 0 0 0 0 0 0 0 0 -0 -0 0 0 -0 -0 -0 0 0 0 0 0 0 0 -0 0 0 0 0 0 0 0
0 0 0 0 0 0 0 0 0 0 0 0 0 0 0 0 0 0 0 0 0 0 0 0 0 0 -0 0 -0 0 0 -0 0 0 0 0 0 0 0 -0 -0 0 0 0 0 0 0
0 0 0 0 0 0 0 0 0 0 0 0 0 0 0 0 0 0 0 0 0 0 0 0 0 -0 0 0 0 0 0 0 0 0 0 0 0 0 0 0 -0 0 0 0 0 0 0
Wind_Speed_500mb
29 33 34 35 36 36 37 37 38 38 37 37 37 37 38 39 40 41 42 43 41 39 39 38 37 36 33 26 39 31 33 27 14 36 51 54 61 59 54 55 62 60 52 72 79 77 75
34 35 37 37 40 40 40 40 42 43 44 44 45 46 48 47 47 45 43 41 40 41 42 40 39 36 29 47 24 35 34 31 26 24 38 47 62 64 65 64 62 70 69 72 78 78 74
34 33 34 36 38 39 39 37 38 39 39 39 40 41 43 46 48 49 49 48 46 45 43 42 40 39 41 61 37 30 27 31 36 35 39 41 46 64 70 61 78 80 61 61 59 70 62
35 36 38 40 40 40 39 39 40 42 43 42 44 45 47 46 45 45 44 42 41 41 47 40 37 24 34 27 21 42 41 49 47 48 50 47 44 55 56 75 75 63 64 59 59 61 72
34 38 40 41 42 41 38 37 38 40 43 46 49 51 52 54 54 53 51 44 31 31 36 33 27 20 33 18 27 27 30 45 45 46 49 47 49 52 43 41 42 57 48 67 63 58 60
38 39 41 45 47 44 41 39 39 42 45 48 49 50 50 53 53 55 54 46 30 33 16 16 23 25 45 30 21 10 8 12 26 42 46 54 39 38 36 37 48 43 61 59 55 51 55
38 39 43 47 50 50 46 44 44 47 51 54 55 56 56 56 53 49 37 38 31 22 12 37 32 31 52 27 14 25 26 24 20 32 39 54 33 47 79 60 58 56 64 63 55 51 54
37 40 45 48 51 52 49 48 48 51 53 55 58 60 61 60 54 26 22 24 33 28 44 45 66 77 73 66 69 61 42 43 32 35 35 39 55 76 43 61 61 67 61 62 55 55 46
39 43 46 48 50 50 49 49 51 54 54 54 57 57 58 55 41 16 30 31 33 30 41 74 91 70 65 58 60 56 49 54 44 43 42 47 74 46 58 58 61 63 60 53 60 50 53
40 44 46 48 49 49 50 52 54 53 53 54 60 61 51 45 20 31 20 31 32 33 17 21 27 33 24 21 37 41 45 57 48 52 44 46 53 62 59 66 65 57 56 58 57 45 39
39 42 45 48 50 51 52 52 52 51 56 56 61 51 34 39 31 27 36 38 32 21 12 17 7 5 10 29 11 12 28 34 44 43 40 62 52 53 63 75 57 69 47 54 55 49 42
39 41 43 46 50 52 54 54 55 55 56 54 56 34 32 29 31 26 40 31 22 10 10 32 31 22 9 18 31 15 10 19 24 37 43 59 65 55 60 53 66 55 52 58 51 38 36
40 41 42 46 49 53 56 56 58 57 56 54 42 28 28 21 28 32 28 17 9 10 31 14 32 26 28 28 24 21 18 21 20 12 37 46 55 63 57 58 58 62 46 33 35 34 40
42 42 43 46 49 52 55 57 61 58 55 54 31 25 21 15 29 21 21 5 8 35 41 44 33 39 32 34 32 33 19 24 29 31 19 26 37 56 57 66 54 58 52 32 52 32 40
43 44 43 45 48 50 52 57 63 61 53 55 34 22 19 18 19 12 13 7 20 30 34 39 41 38 33 25 21 34 16 33 15 19 5 14 29 56 60 57 57 59 57 57 48 42 38
44 45 45 46 47 46 51 59 62 64 53 43 33 22 16 11 16 11 9 20 28 26 28 29 34 9 38 43 9 22 14 17 13 6 14 11 28 43 53 57 66 63 41 52 35 48 45
45 46 48 48 45 44 52 59 62 63 56 36 24 16 11 7 12 18 11 20 30 38 31 26 27 34 38 32 40 23 18 19 4 14 12 14 15 33 44 51 58 50 53 46 41 36 32
48 49 49 48 44 45 52 59 62 61 57 38 15 11 5 15 9 12 17 37 45 41 33 26 21 29 15 38 20 26 39 26 19 16 19 14 8 27 47 46 45 56 49 50 37 44 36
49 50 50 50 45 46 53 59 59 54 45 43 20 31 6 10 9 18 32 32 43 29 26 41 29 34 22 16 14 7 29 19 22 11 4 6 16 21 31 32 42 37 58 48 41 22 37
49 52 53 52 51 47 50 59 60 48 33 30 18 9 32 28 12 19 32 38 37 38 25 33 37 30 18 33 39 17 32 8 32 28 12 5 16 28 24 13 26 20 39 61 51 34 37
49 50 53 55 57 55 49 52 61 51 26 18 12 10 32 14 24 27 26 38 43 32 32 38 30 37 39 37 38 34 39 26 21 23 8 1 15 34 38 46 32 37 59 53 57 45 43
50 49 51 54 58 59 56 47 56 53 28 10 21 26 26 41 34 27 16 31 35 37 37 30 25 38 38 37 31 42 43 35 33 11 13 4 9 27 36 29 23 41 69 54 57 56 53
52 52 51 53 57 60 58 45 51 48 27 12 21 19 20 27 23 11 5 18 39 42 22 43 44 36 39 38 44 53 62 60 43 36 25 10 8 8 9 10 8 38 47 44 46 56 50
52 52 50 52 55 56 56 46 50 47 27 19 25 23 11 16 23 23 26 27 30 40 42 51 46 33 47 48 62 58 53 48 42 38 32 27 23 12 5 21 11 30 32 41 34 39 41
51 52 52 51 53 54 54 50 49 52 39 24 24 23 7 11 40 23 30 28 42 39 37 39 35 34 43 44 22 15 12 14 34 37 34 27 11 8 8 10 13 45 20 38 4 26 40
52 51 53 54 51 51 55 56 50 47 50 33 20 25 20 13 9 40 34 32 17 25 30 28 46 41 39 11 14 19 5 12 7 13 22 20 14 10 10 4 13 12 37 54 9 12 35
53 52 51 53 52 50 55 59 53 42 51 41 31 23 20 13 36 31 15 9 11 11 13 43 35 25 20 14 8 10 14 22 9 14 16 10 10 18 16 7 9 28 50 51 12 4 21
55 56 55 52 51 51 52 56 56 47 53 47 40 21 36 17 53 28 16 18 16 9 5 21 24 11 13 14 9 11 10 14 14 12 11 10 7 6 7 7 5 42 24 20 19 32 36
61 58 56 50 51 51 53 55 56 51 56 45 37 13 28 43 58 63 47 39 35 34 16 6 15 22 13 7 8 8 6 7 15 8 17 4 8 7 15 8 16 27 22 36 31 33 36
Wind_Direction_500mb
28 28 27 26 22 18 14 9 4 358 355 351 348 344 339 336 333 330 328 326 322 314 307 302 303 306 307 248 245 263 301 313 233 217 228 229 231 231 241 235 240 240 240 245 255 257 258
27 26 26 25 20 15 11 7 4 360 356 352 347 343 340 337 333 330 328 324 320 315 308 302 298 295 287 264 258 253 263 246 244 228 234 229 233 232 244 242 241 245 244 248 253 254 259
32 30 26 22 17 12 8 8 6 4 2 358 354 348 342 337 333 331 328 324 320 314 306 298 293 289 271 253 254 244 252 250 245 239 243 242 239 234 241 246 252 254 256 262 255 260 264
30 28 22 16 12 8 6 7 5 3 1 358 354 351 347 343 338 330 323 320 319 312 303 297 290 269 257 275 247 262 262 260 252 247 245 246 256 269 261 255 258 251 258 259 253 259 257
34 33 25 18 13 9 5 4 2 360 356 353 350 347 344 344 340 336 329 322 307 306 304 297 281 225 278 281 247 257 252 250 245 244 243 245 244 255 263 246 246 247 249 251 251 248 261
34 28 21 15 12 9 6 5 1 358 355 350 345 341 338 339 338 337 327 328 327 296 285 278 256 258 251 271 259 193 252 267 240 242 244 225 230 237 238 234 227 222 235 243 259 254 253
28 22 17 14 13 12 9 5 2 356 352 348 344 341 337 337 335 336 333 354 341 298 251 262 273 226 285 282 271 247 285 268 244 244 235 221 217 220 220 220 238 236 237 246 253 250 247
23 20 17 13 11 9 7 3 359 354 351 347 342 338 336 334 332 337 334 321 320 304 297 279 269 265 264 267 269 263 260 253 247 241 227 229 218 224 230 228 233 244 247 250 260 260 260
18 15 12 9 8 5 2 359 355 352 346 340 333 331 332 332 335 355 320 313 323 316 292 281 260 262 263 250 248 252 243 242 242 246 236 225 236 225 232 234 236 236 236 247 258 266 266
12 10 7 4 3 1 358 356 354 349 342 337 337 335 338 347 348 322 323 332 326 324 285 286 209 232 232 247 243 249 244 231 236 238 247 249 243 243 227 235 231 243 234 243 250 252 258
6 4 2 0 0 357 354 354 352 348 345 340 339 340 357 352 349 341 333 320 317 310 275 111 102 127 204 205 193 221 215 221 235 240 234 248 247 236 239 237 228 244 243 251 248 251 259
360 359 359 358 358 355 351 352 350 350 346 343 342 353 8 6 327 327 322 327 312 251 255 12 7 353 346 327 313 316 239 212 235 236 244 255 253 253 247 243 247 245 240 249 257 255 246
353 353 354 354 355 353 350 350 349 350 347 343 345 356 359 3 341 329 339 317 297 287 289 350 331 331 323 298 273 241 276 267 239 244 257 248 244 250 249 253 235 239 231 235 234 236 242
347 346 349 350 351 352 349 350 348 350 349 340 341 336 339 339 334 341 346 359 292 344 6 353 346 326 308 295 279 275 221 263 251 248 279 267 257 228 237 237 238 225 232 222 221 222 239
351 346 347 348 349 352 352 353 349 348 353 340 337 322 330 323 347 328 334 280 8 354 353 347 337 318 324 313 345 296 279 271 344 20 156 322 282 260 227 243 237 233 224 235 245 237 245
355 352 350 349 350 355 354 353 353 348 352 347 339 309 286 341 345 321 300 295 322 2 350 341 335 253 318 318 313 331 327 330 291 100 120 299 285 277 271 219 242 238 227 225 225 231 246
357 354 350 349 352 356 356 354 354 352 351 351 327 270 238 329 341 301 276 289 338 323 318 321 312 324 321 336 314 292 268 200 175 321 255 251 222 275 286 243 219 228 225 220 241 223 238
358 355 352 351 351 353 356 357 355 354 352 357 309 291 177 345 319 285 291 338 305 303 306 312 312 314 271 329 327 310 324 354 180 252 285 308 298 269 269 271 236 237 223 229 218 211 227
357 356 353 351 348 348 354 357 357 356 353 345 305 324 307 311 319 325 312 306 306 335 357 320 323 316 345 308 286 344 294 300 201 245 281 10 235 266 253 260 266 257 227 233 236 230 216
356 355 353 352 349 344 347 354 357 359 351 345 304 331 329 331 336 308 316 313 311 326 323 339 314 324 348 325 323 302 298 6 327 305 37 308 258 261 268 302 333 320 267 228 222 207 226
351 354 353 351 351 349 342 347 353 359 353 345 309 297 333 305 312 316 309 298 305 322 341 335 315 321 340 327 322 312 318 326 288 272 294 -0 286 297 286 268 277 299 292 252 222 198 218
347 348 349 348 348 347 346 342 349 356 3 304 332 344 329 307 312 323 312 306 318 336 335 311 325 321 318 312 310 304 306 300 305 239 277 279 282 277 272 256 264 292 283 275 219 219 212
347 343 347 350 349 347 346 343 347 353 2 335 338 323 310 296 310 307 304 320 309 316 306 319 309 310 306 311 310 295 281 279 275 282 278 285 278 303 272 172 14 286 252 251 240 204 204
343 344 341 346 350 351 351 345 348 349 349 297 296 312 296 298 329 320 317 296 306 306 303 300 298 305 301 316 307 293 277 263 254 254 251 251 285 293 46 129 210 264 249 263 200 186 209
337 340 341 338 342 347 350 346 336 344 338 313 297 290 273 284 318 310 327 314 303 306 296 300 305 303 319 317 309 307 312 288 243 230 236 226 266 287 249 225 343 304 19 321 268 48 19
330 332 335 337 336 339 342 343 338 329 337 322 298 295 263 294 281 323 322 323 309 313 311 329 328 323 309 305 308 318 360 329 334 308 244 193 197 226 301 207 203 328 324 319 344 83 18
324 325 329 331 332 334 338 340 341 336 335 322 300 275 255 255 285 305 293 286 291 294 296 307 343 317 341 334 320 323 350 1 2 354 341 196 228 245 276 274 31 324 330 307 158 229 26
320 319 320 325 326 329 332 335 337 332 332 325 306 251 244 258 291 284 307 265 271 232 277 311 321 350 336 360 342 353 341 360 331 349 356 334 306 321 298 339 354 337 11 50 324 26 31
318 315 316 317 322 326 328 329 331 330 330 322 303 295 286 245 272 289 278 276 277 273 254 249 305 308 337 1 351 333 315 327 322 335 4 12 358 313 11 29 294 322 3 4 11 25 23
Wind_Speed_850mb
29 33 34 35 36 36 37 37 38 38 37 37 37 37 38 39 40 41 42 43 41 39 39 38 37 36 33 26 39 31 33 27 14 36 51 54 61 59 54 55 62 60 52 72 79 77 75
34 35 37 37 40 40 40 40 42 43 44 44 45 46 48 47 47 45 43 41 40 41 42 40 39 36 29 47 24 35 34 31 26 24 38 47 62 64 65 64 62 70 69 72 78 78 74
34 33 34 36 38 39 39 37 38 39 39 39 40 41 43 46 48 49 49 48 46 45 43 42 40 39 41 61 37 30 27 31 36 35 39 41 46 64 70 61 78 80 61 61 59 70 62
35 36 38 40 40 40 39 39 40 42 43 42 44 45 47 46 45 45 44 42 41 41 47 40 37 24 34 27 21 42 41 49 47 48 50 47 44 55 56 75 75 63 64 59 59 61 72
34 38 40 41 42 41 38 37 38 40 43 46 49 51 52 54 54 53 51 44 31 31 36 33 27 20 33 18 27 27 30 45 45 46 49 47 49 52 43 41 42 57 48 67 63 58 60
38 39 41 45 47 44 41 39 39 42 45 48 49 50 50 53 53 55 54 46 30 33 16 16 23 25 45 30 21 10 8 12 26 42 46 54 39 38 36 37 48 43 61 59 55 51 55
38 39 43 47 50 50 46 44 44 47 51 54 55 56 56 56 53 49 37 38 31 22 12 37 32 31 52 27 14 25 26 24 20 32 39 54 33 47 79 60 58 56 64 63 55 51 54
37 40 45 48 51 52 49 48 48 51 53 55 58 60 61 60 54 26 22 24 33 28 44 45 66 77 73 66 69 61 42 43 32 35 35 39 55 76 43 61 61 67 61 62 55 55 46
39 43 46 48 50 50 49 49 51 54 54 54 57 57 58 55 41 16 30 31 33 30 41 74 91 70 65 58 60 56 49 54 44 43 42 47 74 46 58 58 61 63 60 53 60 50 53
40 44 46 48 49 49 50 52 54 53 53 54 60 61 51 45 20 31 20 31 32 33 17 21 27 33 24 21 37 41 45 57 48 52 44 46 53 62 59 66 65 57 56 58 57 45 39
39 42 45 48 50 51 52 52 52 51 56 56 61 51 34 39 31 27 36 38 32 21 12 17 7 5 10 29 11 12 28 34 44 43 40 62 52 53 63 75 57 69 47 54 55 49 42
39 41 43 46 50 52 54 54 55 55 56 54 56 34 32 29 31 26 40 31 22 10 10 32 31 22 9 18 31 15 10 19 24 37 43 59 65 55 60 53 66 55 52 58 51 38 36
40 41 42 46 49 53 56 56 58 57 56 54 42 28 28 21 28 32 28 17 9 10 31 14 32 26 28 28 24 21 18 21 20 12 37 46 55 63 57 58 58 62 46 33 35 34 40
42 42 43 46 49 52 55 57 61 58 55 54 31 25 21 15 29 21 21 5 8 35 41 44 33 39 32 34 32 33 19 24 29 31 19 26 37 56 57 66 54 58 52 32 52 32 40
43 44 43 45 48 50 52 57 63 61 53 55 34 22 19 18 19 12 13 7 20 30 34 39 41 38 33 25 21 34 16 33 15 19 5 14 29 56 60 57 57 59 57 57 48 42 38
44 45 45 46 47 46 51 59 62 64 53 43 33 22 16 11 16 11 9 20 28 26 28 29 34 9 38 43 9 22 14 17 13 6 14 11 28 43 53 57 66 63 41 52 35 48 45
45 46 48 48 45 44 52 59 62 63 56 36 24 16 11 7 12 18 11 20 30 38 31 26 27 34 38 32 40 23 18 19 4 14 12 14 15 33 44 51 58 50 53 46 41 36 32
48 49 49 48 44 45 52 59 62 61 57 38 15 11 5 15 9 12 17 37 45 41 33 26 21 29 15 38 20 26 39 26 19 16 19 14 8 27 47 46 45 56 49 50 37 44 36
49 50 50 50 45 46 53 59 59 54 45 43 20 31 6 10 9 18 32 32 43 29 26 41 29 34 22 16 14 7 29 19 22 11 4 6 16 21 31 32 42 37 58 48 41 22 37
49 52 53 52 51 47 50 59 60 48 33 30 18 9 32 28 12 19 32 38 37 38 25 33 37 30 18 33 39 17 32 8 32 28 12 5 16 28 24 13 26 20 39 61 51 34 37
49 50 53 55 57 55 49 52 61 51 26 18 12 10 32 14 24 27 26 38 43 32 32 38 30 37 39 37 38 34 39 26 21 23 8 1 15 34 38 46 32 37 59 53 57 45 43
50 49 51 54 58 59 56 47 56 53 28 10 21 26 26 41 34 27 16 31 35 37 37 30 25 38 38 37 31 42 43 35 33 11 13 4 9 27 36 29 23 41 69 54 57 56 53
52 52 51 53 57 60 58 45 51 48 27 12 21 19 20 27 23 11 5 18 39 42 22 43 44 36 39 38 44 53 62 60 43 36 25 10 8 8 9 10 8 38 47 44 46 56 50
52 52 50 52 55 56 56 46 50 47 27 19 25 23 11 16 23 23 26 27 30 40 42 51 46 33 47 48 62 58 53 48 42 38 32 27 23 12 5 21 11 30 32 41 34 39 41
51 52 52 51 53 54 54 50 49 52 39 24 24 23 7 11 40 23 30 28 42 39 37 39 35 34 43 44 22 15 12 14 34 37 34 27 11 8 8 10 13 45 20 38 4 26 40
52 51 53 54 51 51 55 56 50 47 50 33 20 25 20 13 9 40 34 32 17 25 30 28 46 41 39 11 14 19 5 12 7 13 22 20 14 10 10 4 13 12 37 54 9 12 35
53 52 51 53 52 50 55 59 53 42 51 41 31 23 20 13 36 31 15 9 11 11 13 43 35 25 20 14 8 10 14 22 9 14 16 10 10 18 16 7 9 28 50 51 12 4 21
55 56 55 52 51 51 52 56 56 47 53 47 40 21 36 17 53 28 16 18 16 9 5 21 24 11 13 14 9 11 10 14 14 12 11 10 7 6 7 7 5 42 24 20 19 32 36
61 58 56 50 51 51 53 55 56 51 56 45 37 13 28 43 58 63 47 39 35 34 16 6 15 22 13 7 8 8 6 7 15 8 17 4 8 7 15 8 16 27 22 36 31 33 36
Wind_Direction_850mb
28 28 27 26 22 18 14 9 4 358 355 351 348 344 339 336 333 330 328 326 322 314 307 302 303 306 307 248 245 263 301 313 233 217 228 229 231 231 241 235 240 240 240 245 255 257 258
27 26 26 25 20 15 11 7 4 360 356 352 347 343 340 337 333 330 328 324 320 315 308 302 298 295 287 264 258 253 263 246 244 228 234 229 233 232 244 242 241 245 244 248 253 254 259
32 30 26 22 17 12 8 8 6 4 2 358 354 348 342 337 333 331 328 324 320 314 306 298 293 289 271 253 254 244 252 250 245 239 243 242 239 234 241 246 252 254 256 262 255 260 264
30 28 22 16 12 8 6 7 5 3 1 358 354 351 347 343 338 330 323 320 319 312 303 297 290 269 257 275 247 262 262 260 252 247 245 246 256 269 261 255 258 251 258 259 253 259 257
34 33 25 18 13 9 5 4 2 360 356 353 350 347 344 344 340 336 329 322 307 306 304 297 281 225 278 281 247 257 252 250 245 244 243 245 244 255 263 246 246 247 249 251 251 248 261
34 28 21 15 12 9 6 5 1 358 355 350 345 341 338 339 338 337 327 328 327 296 285 278 256 258 251 271 259 193 252 267 240 242 244 225 230 237 238 234 227 222 235 243 259 254 253
28 22 17 14 13 12 9 5 2 356 352 348 344 341 337 337 335 336 333 354 341 298 251 262 273 226 285 282 271 247 285 268 244 244 235 221 217 220 220 220 238 236 237 246 253 250 247
23 20 17 13 11 9 7 3 359 354 351 347 342 338 336 334 332 337 334 321 320 304 297 279 269 265 264 267 269 263 260 253 247 241 227 229 218 224 230 228 233 244 247 250 260 260 260
18 15 12 9 8 5 2 359 355 352 346 340 333 331 332 332 335 355 320 313 323 316 292 281 260 262 263 250 248 252 243 242 242 246 236 225 236 225 232 234 236 236 236 247 258 266 266
12 10 7 4 3 1 358 356 354 349 342 337 337 335 338 347 348 322 323 332 326 324 285 286 209 232 232 247 243 249 244 231 236 238 247 249 243 243 227 235 231 243 234 243 250 252 258
6 4 2 0 0 357 354 354 352 348 345 340 339 340 357 352 349 341 333 320 317 310 275 111 102 127 204 205 193 221 215 221 235 240 234 248 247 236 239 237 228 244 243 251 248 251 259
360 359 359 358 358 355 351 352 350 350 346 343 342 353 8 6 327 327 322 327 312 251 255 12 7 353 346 327 313 316 239 212 235 236 244 255 253 253 247 243 247 245 240 249 257 255 246
353 353 354 354 355 353 350 350 349 350 347 343 345 356 359 3 341 329 339 317 297 287 289 350 331 331 323 298 273 241 276 267 239 244 257 248 244 250 249 253 235 239 231 235 234 236 242
347 346 349 350 351 352 349 350 348 350 349 340 341 336 339 339 334 341 346 359 292 344 6 353 346 326 308 295 279 275 221 263 251 248 279 267 257 228 237 237 238 225 232 222 221 222 239
351 346 347 348 349 352 352 353 349 348 353 340 337 322 330 323 347 328 334 280 8 354 353 347 337 318 324 313 345 296 279 271 344 20 156 322 282 260 227 243 237 233 224 235 245 237 245
355 352 350 349 350 355 354 353 353 348 352 347 339 309 286 341 345 321 300 295 322 2 350 341 335 253 318 318 313 331 327 330 291 100 120 299 285 277 271 219 242 238 227 225 225 231 246
357 354 350 349 352 356 356 354 354 352 351 351 327 270 238 329 341 301 276 289 338 323 318 321 312 324 321 336 314 292 268 200 175 321 255 251 222 275 286 243 219 228 225 220 241 223 238
358 355 352 351 351 353 356 357 355 354 352 357 309 291 177 345 319 285 291 338 305 303 306 312 312 314 271 329 327 310 324 354 180 252 285 308 298 269 269 271 236 237 223 229 218 211 227
357 356 353 351 348 348 354 357 357 356 353 345 305 324 307 311 319 325 312 306 306 335 357 320 323 316 345 308 286 344 294 300 201 245 281 10 235 266 253 260 266 257 227 233 236 230 216
356 355 353 352 349 344 347 354 357 359 351 345 304 331 329 331 336 308 316 313 311 326 323 339 314 324 348 325 323 302 298 6 327 305 37 308 258 261 268 302 333 320 267 228 222 207 226
351 354 353 351 351 349 342 347 353 359 353 345 309 297 333 305 312 316 309 298 305 322 341 335 315 321 340 327 322 312 318 326 288 272 294 -0 286 297 286 268 277 299 292 252 222 198 218
347 348 349 348 348 347 346 342 349 356 3 304 332 344 329 307 312 323 312 306 318 336 335 311 325 321 318 312 310 304 306 300 305 239 277 279 282 277 272 256 264 292 283 275 219 219 212
347 343 347 350 349 347 346 343 347 353 2 335 338 323 310 296 310 307 304 320 309 316 306 319 309 310 306 311 310 295 281 279 275 282 278 285 278 303 272 172 14 286 252 251 240 204 204
343 344 341 346 350 351 351 345 348 349 349 297 296 312 296 298 329 320 317 296 306 306 303 300 298 305 301 316 307 293 277 263 254 254 251 251 285 293 46 129 210 264 249 263 200 186 209
337 340 341 338 342 347 350 346 336 344 338 313 297 290 273 284 318 310 327 314 303 306 296 300 305 303 319 317 309 307 312 288 243 230 236 226 266 287 249 225 343 304 19 321 268 48 19
330 332 335 337 336 339 342 343 338 329 337 322 298 295 263 294 281 323 322 323 309 313 311 329 328 323 309 305 308 318 360 329 334 308 244 193 197 226 301 207 203 328 324 319 344 83 18
324 325 329 331 332 334 338 340 341 336 335 322 300 275 255 255 285 305 293 286 291 294 296 307 343 317 341 334 320 323 350 1 2 354 341 196 228 245 276 274 31 324 330 307 158 229 26
320 319 320 325 326 329 332 335 337 332 332 325 306 251 244 258 291 284 307 265 271 232 277 311 321 350 336 360 342 353 341 360 331 349 356 334 306 321 298 339 354 337 11 50 324 26 31
318 315 316 317 322 326 328 329 331 330 330 322 303 295 286 245 272 289 278 276 277 273 254 249 305 308 337 1 351 333 315 327 322 335 4 12 358 313 11 29 294 322 3 4 11 25 23